Regional Weather Roundup
Issued by NWS

Home | Current Version | Previous Version | Text Only | Print | Product List | Glossary Off
Versions: 1 2 3 4 5 6 7 8 9 10 11 12 13 14 15 16 17 18 19 20 21 22 23 24 25 26 27 28 29 30 31 32 33 34 35 36 37 38 39 40 41 42 43 44 45 46 47 48 49 50

000
ASUS43 KLOT 231310
RWRIL

ILLINOIS REGIONAL WEATHER ROUNDUP
NATIONAL WEATHER SERVICE CHICAGO/ROMEOVILLE IL
700 AM CST SUN NOV 23 2014

NOTE: "FAIR" INDICATES FEW OR NO CLOUDS BELOW 12,000 FEET WITH NO
SIGNIFICANT WEATHER AND/OR OBSTRUCTIONS TO VISIBILITY.

* THESE STATIONS ARE NOT UNDER NWS QUALITY CONTROL. THEY ALSO MAY NOT
  REPORT WEATHER SUCH AS PRECIPITATION OR FOG.

ILZ001-002-007-009-015-016-024-231400-
NORTHWEST ILLINOIS

CITY           SKY/WX    TMP DP  RH WIND       PRES   REMARKS
MOLINE         LGT RAIN  52  47  83 S13       29.65F
STERLING*      CLOUDY    48  45  87 S5        29.70R
SAVANNA*       CLOUDY    50  47  92 S9        29.67S FOG
$$

ILZ003-004-008-010-011-017-018-231400-
NORTH CENTRAL ILLINOIS

CITY           SKY/WX    TMP DP  RH WIND       PRES   REMARKS
ROCKFORD       CLOUDY    48  44  86 S12       29.72S
FREEPORT*      CLOUDY    48  46  95 S18       29.70R FOG
ROCHELLE*      CLOUDY    46  44  93 S9        29.72S
DE KALB*       CLOUDY    44  42  90 S12       29.73F
PERU*          CLOUDY    49  43  79 S12       29.74R
$$

ILZ005-006-012>014-019>023-231400-
NORTHEAST ILLINOIS

CITY           SKY/WX    TMP DP  RH WIND       PRES   REMARKS
CHICAGO-OHARE  CLOUDY    49  41  74 S15       29.74S
CHICAGO-MIDWAY CLOUDY    51  42  71 S12       29.76S
AURORA         CLOUDY    47  41  80 S10       29.74F
LANSING*       CLOUDY    49  42  76 S12       29.78S
JOLIET*        CLOUDY    49  42  74 S10G16    29.77R
WAUKEGAN       CLOUDY    49  42  77 S14       29.73R
DUPAGE AIRPORT CLOUDY    49  42  77 S12       29.74S
KANKAKEE*      CLOUDY    49  43  80 S15       29.79R
WHEELING       MOCLDY    48  42  80 S10       29.76S
MORRIS*        CLOUDY    47  43  88 S8        29.75R
ROMEOVILLE*    LGT RAIN  48  42  80 S16       29.76S
NORTHERLY ISL    N/A     51  41  68 S10         N/A
$$

LMZ740>746-231400-
SOUTHERN LAKE MICHIGAN

STATION/POSITION SKY/WX   TEMP    WIND        PRES    VSBY  WAVE
                          AIR SEA DIR/SP/G                  HT/PER
                          (F)     (DEG/KT/KT) (MB)    (MI)  (FT/S)
SOUTHERN BUOY              45 43  170/ 17/ 19 1007.8F         3/ 5
WAUKEGAN HARBOR            45     190/ 14/ 15   N/A
HARRISON CRIB              49     170/ 18/ 21   N/A
BURNHAM HARBOR             51     180/ 10/ 15   N/A
CALUMET HARBOR             50     170/ 11/ 18 1006.8F
MICHIGAN CITY              49     150/ 13/ 17   N/A
$$

ILZ025>027-034>036-040-047-049-050-058-095>099-231400-
WEST-CENTRAL ILLINOIS

CITY           SKY/WX    TMP DP  RH WIND       PRES   REMARKS
QUINCY         LGT RAIN  51  48  89 S12       29.64F
GALESBURG*     HVY RAIN  48  46  92 SE7       29.68F
MACOMB*        HVY RAIN  49  48  95 S15       29.69F
JACKSONVILLE*  CLOUDY    54  47  78 S14       29.70F
PITTSFIELD*    CLOUDY    53  47  81 S15       29.69F
$$

ILZ028>032-037-038-041>044-048-051>054-059>061-231400-
CENTRAL ILLINOIS

CITY           SKY/WX    TMP DP  RH WIND       PRES   REMARKS
PONTIAC        CLOUDY    48  44  84 S15G24    29.75F
BLOOMINGTON    CLOUDY    47  43  86 S15       29.76F
DECATUR        CLOUDY    50  44  80 S14       29.78F
PEORIA         LGT RAIN  52  43  71 S13       29.72F
LACON*         CLOUDY    50  42  73 S12       29.71F
LINCOLN*       LGT RAIN  51  45  79 S8        29.74F
SPRINGFIELD    CLOUDY    51  44  77 S16       29.74F
TAYLORVILLE    CLOUDY    50  45  81 S14       29.75S
$$

ILZ033-039-045-046-055>057-062-063-231400-
EAST-CENTRAL ILLINOIS

CITY           SKY/WX    TMP DP  RH WIND       PRES   REMARKS
CHAMPAIGN      CLOUDY    48  43  82 S13       29.80F
DANVILLE*      MOCLDY    49  43  80 SE9G16    29.80S
RANTOUL*       MOCLDY    47  43  86 SE8       29.80F
MATTOON        CLOUDY    48  41  76 S14       29.80S
PARIS*         CLOUDY    49  44  81 SE13      29.84S
$$

ILZ079-100>102-231400-
SOUTHWEST ILLINOIS

CITY           SKY/WX    TMP DP  RH WIND       PRES   REMARKS
ALTON          CLOUDY    52  46  82 S12       29.76S
BELLEVILLE     CLOUDY    53  51  92 SE6       29.74F
CAHOKIA*       CLOUDY    53  47  79 S9        29.74F
SPARTA*        CLOUDY    55  49  83 SE10      29.76F
$$

ILZ064>066-069>071-074>076-080>082-084>086-088>090-092>094-231400-
SOUTH-CENTRAL ILLINOIS

CITY           SKY/WX    TMP DP  RH WIND       PRES   REMARKS
CARBONDALE     CLOUDY    56  49  77 S13       29.78F
CAIRO*         CLOUDY    58  49  71 SE9       29.79F
EFFINGHAM*     CLOUDY    49  40  71 SE10      29.81F
MARION         CLOUDY    57  52  82 S12       29.80F
MT. VERNON     CLOUDY    52  41  66 SE8       29.80F
CENTRALIA*     CLOUDY    53  45  75 SE8       29.78S
SALEM*           N/A     52  44  74 SE8       29.79F
METROPOLIS*    CLOUDY    57  48  72 SE5       29.80F
$$

ILZ067-068-072-073-078-083-087-091-231400-
SOUTHEAST ILLINOIS

CITY           SKY/WX    TMP DP  RH WIND       PRES   REMARKS
LAWRENCEVILLE  CLOUDY    52  42  69 S15       29.87S
FLORA*         CLOUDY    51  44  76 SE15      29.81F
FAIRFIELD*     CLOUDY    51  43  75 SE8       29.81F
HARRISBURG*    CLOUDY    54  46  76 SE7       29.82F
ROBINSON*      CLOUDY    51  42  72 S9G17     29.86S
CARMI*         CLOUDY    52  46  78 E12       29.83F
$$

ABBREVIATIONS USED IN REMARKS
   TC - TEMPERATURE IN CELSIUS
  WCI - WIND CHILL INDEX
   HX - HEAT INDEX
  VSB - VISIBILITY
$$




USA.gov is the U.S. government's official web portal to all federal, state and local government web resources and services.